Hourly Data Report for February 08, 2006

TORONTO CITY
ONTARIO

43°40'00.000" N
79°24'00.000" W
112.50 m
6158355
71508
XTO

Download Data

Hourly Data (February 2006)
Hourly Data Report for February 8, 2006
TIME
LST
Temp Definition
°C
Dew Point Definition
°C
Rel Hum Definition
%
Precip. Amount Definition
mm

Wind Dir Definition
10's deg

Wind Spd Definition
km/h
Visibility Definition
km
Stn Press Definition
kPa
Hmdx Definition


Wind Chill Definition


Weather Definition


00:00 -4.1 -7.7 76   LegendMM LegendMM   100.44     LegendNANA
01:00 -4.2 -7.5 78   LegendMM LegendMM   100.41     LegendNANA
02:00 -4.3 -7.2 80   LegendMM LegendMM   100.42     LegendNANA
03:00 -4.5 -7.0 83   LegendMM LegendMM   100.42     LegendNANA
04:00 -4.8 -7.2 83   LegendMM LegendMM   100.43     LegendNANA
05:00 -5.9 -9.5 76   LegendMM LegendMM   100.47     LegendNANA
06:00 -6.5 -10.2 75   LegendMM LegendMM   100.50     LegendNANA
07:00 -7.5 -11.3 74   LegendMM LegendMM   100.52     LegendNANA
08:00 -8.3 -11.9 75   LegendMM LegendMM   100.60     LegendNANA
09:00 -8.5 -12.0 76   LegendMM LegendMM   100.64     LegendNANA
10:00 -8.5 -13.1 69   LegendMM LegendMM   100.63     LegendNANA
11:00 -7.5 -14.0 60   LegendMM LegendMM   100.62     LegendNANA
12:00 -6.6 -13.0 60   LegendMM LegendMM   100.60     LegendNANA
13:00 -6.1 -13.3 57   LegendMM LegendMM   100.56     LegendNANA
14:00 -5.6 -13.2 55   LegendMM LegendMM   100.53     LegendNANA
15:00 -5.7 -12.8 57   LegendMM LegendMM   100.52     LegendNANA
16:00 -5.9 -13.3 56   LegendMM LegendMM   100.53     LegendNANA
17:00 -6.1 -14.2 53   LegendMM LegendMM   100.53     LegendNANA
18:00 -6.3 -11.9 64   LegendMM LegendMM   100.53     LegendNANA
19:00 -6.7 -11.6 68   LegendMM LegendMM   100.55     LegendNANA
20:00 -6.8 -11.6 69   LegendMM LegendMM   100.55     LegendNANA
21:00 -7.1 -11.0 74   LegendMM LegendMM   100.54     LegendNANA
22:00 -7.5 -11.1 75   LegendMM LegendMM   100.55     LegendNANA
23:00 -7.6 -11.0 77   LegendMM LegendMM   100.55     LegendNANA

Notes on Data Quality.

Legend

  • E = Estimated
  • M = Missing
  • NA = Not Available*
  • [empty] = Indicates an unobserved value
Date modified: